Weather History for Georgetown, SC

Change the Weather History Date:

Wednesday, May 16, 2012

  Actual Average Record
Temperature  
Mean Temperature 73 °F -  
Max Temperature 82 °F 83 °F 86 °F (2013)
Min Temperature 64 °F 60 °F 53 °F (2011)
Cooling Degree Days 8    
Growing Degree Days 23 (Base 50)    
Moisture  
Dew Point 65 °F    
Average Humidity 83    
Maximum Humidity 94    
Minimum Humidity 65    
Precipitation  
Precipitation 2.40 in - - ()
Sea Level Pressure  
Sea Level Pressure 29.95 in    
Wind  
Wind Speed 4 mph (South)    
Max Wind Speed 17 mph    
Max Gust Speed 28 mph    
Visibility 8 miles    
Events Fog , Rain , Thunderstorm    
Averages and records for this station are not official NWS values.
T = Trace of Precipitation, MM = Missing Value Source: NWS Daily Summary

Daily Weather History Graph

Daily Weather History Graph

Search for Another Location

Airport:

Trip Planner

Search our weather history database for the weather conditions in past years. The results will help you decide how hot, cold, wet, or windy it might be!

Date:

Astronomy

May. 16, 2012 Rise Set
Actual Time 6:16 AM EDT 8:11 PM EDT
Civil Twilight 5:48 AM EDT 8:38 PM EDT
Nautical Twilight 5:15 AM EDT 9:12 PM EDT
Astronomical Twilight 4:40 AM EDT 9:47 PM EDT
Moon 3:34 AM EDT (5/16) 4:34 PM EDT (5/16)
Length of Visible Light 14h 50m
Length of Day
13h 55m
Waning Crescent, 16% of the Moon is Illuminated
May 16
Waning Crescent
May 20
New
May 28
First Quarter
Jun 4
Full
Jun 11
Last Quarter

Hourly Weather History & Observations

Time (EDT) Temp. Heat Index Dew Point Humidity Pressure Visibility Wind Dir Wind Speed Gust Speed Precip Events Conditions
12:35 AM 69.8 °F - 66.2 °F 88% 30.00 in 10.0 mi SW 3.5 mph - N/A   Mostly Cloudy
12:55 AM 69.8 °F - 68.0 °F 94% 29.99 in 10.0 mi Calm Calm - N/A   Scattered Clouds
1:15 AM 68.0 °F - 64.4 °F 88% 29.99 in 7.0 mi NNE 3.5 mph - N/A   Clear
1:55 AM 68.0 °F - 66.2 °F 94% 29.98 in 10.0 mi Calm Calm - N/A   Mostly Cloudy
2:15 AM 69.8 °F - 68.0 °F 94% 29.98 in 10.0 mi WSW 3.5 mph - N/A   Scattered Clouds
2:35 AM 68.0 °F - 64.4 °F 88% 29.98 in 5.0 mi SW 3.5 mph - N/A   Clear
2:55 AM 68.0 °F - 66.2 °F 94% 29.97 in 7.0 mi Calm Calm - N/A   Clear
3:15 AM 69.8 °F - 68.0 °F 94% 29.97 in 7.0 mi Calm Calm - N/A   Mostly Cloudy
3:35 AM 69.8 °F - 66.2 °F 88% 29.96 in 7.0 mi Calm Calm - N/A   Mostly Cloudy
3:55 AM 68.0 °F - 64.4 °F 88% 29.96 in 7.0 mi Calm Calm - N/A   Scattered Clouds
4:15 AM 68.0 °F - 66.2 °F 94% 29.96 in 5.0 mi Calm Calm - N/A   Clear
4:35 AM 68.0 °F - 66.2 °F 94% 29.95 in 5.0 mi Calm Calm - N/A   Clear
4:55 AM 68.0 °F - 64.4 °F 88% 29.95 in 4.0 mi Calm Calm - N/A   Clear
5:15 AM 68.0 °F - 64.4 °F 88% 29.95 in 0.5 mi Calm Calm - N/A Fog Fog
5:35 AM 66.2 °F - 64.4 °F 94% 29.96 in 7.0 mi Calm Calm - N/A   Clear
5:55 AM 68.0 °F - 64.4 °F 88% 29.96 in 1.0 mi Calm Calm - N/A   Mist
6:15 AM 66.2 °F - 64.4 °F 94% 29.96 in 0.8 mi Calm Calm - N/A   Mist
6:35 AM 64.4 °F - 62.6 °F 94% 29.97 in 10.0 mi Calm Calm - N/A   Scattered Clouds
6:55 AM 66.2 °F - 64.4 °F 94% 29.97 in 7.0 mi Calm Calm - N/A   Scattered Clouds
7:15 AM 68.0 °F - 64.4 °F 88% 29.98 in 7.0 mi Calm Calm - N/A   Scattered Clouds
7:35 AM 69.8 °F - 68.0 °F 94% 29.98 in 7.0 mi Calm Calm - N/A   Scattered Clouds
7:55 AM 71.6 °F - 69.8 °F 94% 29.99 in 7.0 mi South 3.5 mph - N/A   Mostly Cloudy
8:15 AM 73.4 °F - 69.8 °F 88% 29.98 in 10.0 mi South 4.6 mph - N/A   Scattered Clouds
8:35 AM 75.2 °F - 69.8 °F 83% 29.98 in 10.0 mi SSW 4.6 mph - N/A   Clear
8:55 AM 77.0 °F - 69.8 °F 78% 29.98 in 10.0 mi South 5.8 mph - N/A   Scattered Clouds
9:15 AM 77.0 °F - 68.0 °F 74% 29.98 in 10.0 mi SW 4.6 mph - N/A   Mostly Cloudy
9:35 AM 77.0 °F - 68.0 °F 74% 29.98 in 10.0 mi South 4.6 mph - N/A   Scattered Clouds
9:55 AM 78.8 °F - 68.0 °F 69% 29.97 in 10.0 mi SW 3.5 mph - N/A   Mostly Cloudy
10:15 AM 78.8 °F - 68.0 °F 69% 29.97 in 10.0 mi South 3.5 mph - N/A   Mostly Cloudy
10:35 AM 80.6 °F 83.2 °F 68.0 °F 65% 29.97 in 10.0 mi South 8.1 mph - N/A   Mostly Cloudy
11:15 AM 80.6 °F 83.2 °F 68.0 °F 65% 29.97 in 10.0 mi South 4.6 mph - N/A   Scattered Clouds
11:35 AM 80.6 °F 83.2 °F 68.0 °F 65% 29.97 in 10.0 mi SSW 3.5 mph - N/A   Scattered Clouds
12:15 PM 80.6 °F 83.2 °F 68.0 °F 65% 29.96 in 10.0 mi SSW 4.6 mph - N/A   Mostly Cloudy
12:35 PM 80.6 °F 83.2 °F 68.0 °F 65% 29.95 in 10.0 mi South 9.2 mph - N/A   Overcast
1:15 PM 80.6 °F 83.2 °F 68.0 °F 65% 29.94 in 10.0 mi SSW 9.2 mph - N/A Thunderstorm Mostly Cloudy
1:35 PM 78.8 °F - 69.8 °F 74% 29.93 in 10.0 mi South 8.1 mph - N/A Rain , Thunderstorm Light Thunderstorms and Rain
1:55 PM 82.4 °F 86.3 °F 69.8 °F 66% 29.93 in 10.0 mi South 11.5 mph - N/A Thunderstorm Thunderstorm
2:15 PM 78.8 °F - 68.0 °F 69% 29.93 in 10.0 mi South 8.1 mph - N/A Thunderstorm Mostly Cloudy
2:35 PM 78.8 °F - 68.0 °F 69% 29.92 in 10.0 mi South 4.6 mph - N/A Thunderstorm Thunderstorm
2:55 PM 78.8 °F - 69.8 °F 74% 29.92 in 5.0 mi South 6.9 mph - N/A Thunderstorm Unknown
3:15 PM 78.8 °F - 68.0 °F 69% 29.92 in 10.0 mi SE 3.5 mph - N/A Thunderstorm Thunderstorm
3:35 PM 78.8 °F - 68.0 °F 69% 29.90 in 10.0 mi SSW 10.4 mph - N/A Thunderstorm Mostly Cloudy
3:55 PM 77.0 °F - 68.0 °F 74% 29.90 in 4.0 mi South 11.5 mph - 0.07 in Rain , Thunderstorm Heavy Thunderstorms and Rain
4:15 PM 71.6 °F - 66.2 °F 83% 29.90 in 10.0 mi ENE 12.7 mph 24.2 mph N/A Thunderstorm Thunderstorm
4:35 PM 71.6 °F - 64.4 °F 78% 29.91 in 10.0 mi East 9.2 mph 21.9 mph N/A Thunderstorm Mostly Cloudy
4:55 PM 69.8 °F - 64.4 °F 83% 29.89 in 2.5 mi ESE 17.3 mph 27.6 mph 0.11 in Rain , Thunderstorm Light Thunderstorms and Rain
5:15 PM 71.6 °F - 66.2 °F 83% 29.91 in 3.0 mi East 8.1 mph - 0.08 in Rain , Thunderstorm Heavy Thunderstorms and Rain
5:35 PM 69.8 °F - 64.4 °F 83% 29.92 in 10.0 mi East 6.9 mph - 0.08 in Thunderstorm Thunderstorm
6:15 PM 69.8 °F - 64.4 °F 83% 29.94 in 1.5 mi SSW 16.1 mph - 0.42 in Rain , Thunderstorm Heavy Thunderstorms and Rain
6:35 PM 66.2 °F - 60.8 °F 83% 29.93 in 1.0 mi SE 8.1 mph - 1.07 in Rain , Thunderstorm Heavy Thunderstorms and Rain
6:55 PM 64.4 °F - 60.8 °F 88% 29.93 in 1.2 mi SE 10.4 mph - 1.76 in Rain , Thunderstorm Heavy Thunderstorms and Rain
7:15 PM 64.4 °F - 60.8 °F 88% 29.95 in 1.5 mi Calm Calm - 0.16 in Rain , Thunderstorm Heavy Thunderstorms and Rain
7:35 PM 64.4 °F - 60.8 °F 88% 29.95 in 5.0 mi ESE 3.5 mph - 0.31 in Rain , Thunderstorm Light Thunderstorms and Rain
8:15 PM 68.0 °F - 60.8 °F 78% 29.96 in 10.0 mi ENE 5.8 mph - N/A Rain , Thunderstorm Light Thunderstorms and Rain
8:35 PM 64.4 °F - 60.8 °F 88% 29.96 in 10.0 mi Calm Calm - N/A Thunderstorm Thunderstorm
8:55 PM 64.4 °F - 60.8 °F 88% 29.95 in 10.0 mi ESE 3.5 mph - N/A Rain Light Rain
9:15 PM 64.4 °F - 60.8 °F 88% 29.94 in 10.0 mi South 4.6 mph - N/A Rain , Thunderstorm Light Thunderstorms and Rain
9:35 PM 64.4 °F - 60.8 °F 88% 29.95 in 10.0 mi WSW 4.6 mph - 0.06 in Rain , Thunderstorm Light Thunderstorms and Rain
9:55 PM 64.4 °F - 60.8 °F 88% 29.95 in 10.0 mi WSW 3.5 mph - 0.07 in Thunderstorm Mostly Cloudy
10:15 PM 64.4 °F - 60.8 °F 88% 29.95 in 10.0 mi SSW 9.2 mph - N/A Thunderstorm Overcast
10:35 PM 64.4 °F - 60.8 °F 88% 29.96 in 10.0 mi South 12.7 mph - N/A Thunderstorm Thunderstorm
10:55 PM 66.2 °F - 60.8 °F 83% 29.95 in 10.0 mi SSW 6.9 mph - N/A   Overcast
11:15 PM 64.4 °F - 60.8 °F 88% 29.94 in 10.0 mi SSW 9.2 mph - N/A   Mostly Cloudy
11:35 PM 64.4 °F - 60.8 °F 88% 29.95 in 10.0 mi SW 10.4 mph - N/A   Mostly Cloudy
11:55 PM 64.4 °F - 60.8 °F 88% 29.95 in 10.0 mi SW 5.8 mph - N/A Rain Rain